Location: Okie-Tex Star Party
(36.8978°N, 102.9520°W)
Time: 04:49:48
(UTC-05:00)

Oscar 16 - Visible Passes

Search period start: 27 May 2015 00:00
Search period end: 06 June 2015 00:00
Orbit: 776 x 790 km, 98.5° (Epoch: 26 May)

Date Brightness Start Highest point End Pass type
(mag) Time Alt. Az. Time Alt. Az. Time Alt. Az.
27 May 11.1 03:07:14 10° NNE 03:12:05 54° E 03:12:05 54° E visible
27 May 12.4 04:47:55 10° NNW 04:51:16 17° WNW 04:52:40 15° W visible
28 May 12.2 02:36:20 10° NE 02:40:13 26° E 02:40:13 26° E visible
28 May 11.5 04:15:23 10° N 04:20:00 33° WNW 04:20:48 31° W visible
29 May 13.0 02:06:41 10° ENE 02:08:21 12° E 02:08:21 12° E visible
29 May 10.6 03:43:29 10° N 03:48:37 66° WNW 03:48:56 64° W visible
30 May 10.9 03:12:00 10° NNE 03:17:03 61° E 03:17:03 61° E visible
30 May 12.5 04:53:00 10° NNW 04:56:01 15° WNW 04:57:38 13° W visible
31 May 12.0 02:41:00 10° NE 02:45:11 29° E 02:45:11 29° E visible
31 May 11.7 04:20:18 10° N 04:24:46 29° WNW 04:25:46 27° W visible
01 Jun 12.9 02:11:01 10° ENE 02:13:18 14° E 02:13:18 14° E visible
01 Jun 10.7 03:48:20 10° N 03:53:24 59° WNW 03:53:53 56° W visible
02 Jun 10.7 03:16:46 10° NNE 03:21:56 68° ESE 03:22:01 68° ESE visible
02 Jun 12.6 04:58:08 10° NNW 05:00:46 14° WNW 05:02:35 11° W visible
03 Jun 11.8 02:45:41 10° NNE 02:50:08 32° E 02:50:08 32° E visible
03 Jun 11.8 04:25:14 10° NNW 04:29:32 27° WNW 04:30:43 24° W visible
04 Jun 12.8 02:15:27 10° NE 02:18:15 16° E 02:18:15 16° E visible
04 Jun 10.8 03:53:09 10° N 03:58:11 53° WNW 03:58:50 49° W visible
05 Jun 10.5 03:21:33 10° NNE 03:26:44 76° ESE 03:26:57 74° SE visible
05 Jun 12.7 05:03:21 10° NW 05:05:31 12° WNW 05:07:23 10° W visible
